Regional Weather Roundup
Issued by NWS

Home | Current Version | Previous Version | Text Only | Print | Product List | Glossary Off
Versions: 1 2 3 4 5 6 7 8 9 10 11 12 13 14 15 16 17 18 19 20 21 22 23 24 25 26 27 28 29 30 31 32 33 34 35 36 37 38 39 40 41 42 43 44 45 46 47 48 49 50

000
ASUS43 KDMX 291706
RWRIA

WEATHER ROUNDUP FOR IOWA
NATIONAL WEATHER SERVICE DES MOINES IA
1200 PM CDT WED MAR 29 2017

NOTE: "FAIR" INDICATES FEW OR NO CLOUDS BELOW 12,000 FEET WITH NO
SIGNIFICANT WEATHER AND/OR OBSTRUCTIONS TO VISIBILITY.

* - THESE STATIONS ARE NOT NWS STATIONS...THUS NOT UNDER NWS
QUALITY CONTROL.  THEY ALSO DO NOT REPORT WEATHER SUCH
AS PRECIPITATION OR FOG.

IAZ001>003-012>014-020>022-031>034-043>046-291800-
   NORTHWEST IOWA

CITY           SKY/WX    TMP DP  RH WIND       PRES   REMARKS
CARROLL *      LGT RAIN  41  41 100 E20       30.05F
CHEROKEE *     CLOUDY    45  43  92 NE14G22   30.08F
DENISON *      LGT RAIN  43  41  93 E21       30.03F
LE MARS *      CLOUDY    45  41  87 NE15G22   30.09F
ORANGE CITY *  LGT RAIN  45  41  87 E15G26    30.09F
SHELDON *      CLOUDY    45  41  87 E20G26    30.10F
SIOUX CITY     CLOUDY    46  43  89 NE15G24   30.04F
SPENCER        CLOUDY    45  40  82 E24G32    30.12F
STORM LAKE *   MIX PCPN  41  39  93 E24       30.07F
$$

IAZ055>058-069>071-079>083-090>094-291800-
   SOUTHWEST IOWA

CITY           SKY/WX    TMP DP  RH WIND       PRES   REMARKS
ATLANTIC *     RAIN      41  41 100 NE17G25   29.96F
AUDUBON *      LGT RAIN  41  37  87 NE18G25   30.01F
CLARINDA *     CLOUDY    45  43  93 NE16G23   29.91F FOG
COUNCIL BLFS * CLOUDY    43  43 100 NE26G33   29.92F
CRESTON *      LGT RAIN  41  41 100 NE26G32   29.92F
HARLAN  *      LGT RAIN  43  43 100 NE21G28   30.00F
LAMONI         CLOUDY    43  42  97 E17G25    29.90F
RED OAK *      MIX PCPN  43  43 100 NE20G32   29.92F
SHENANDOAH *   MIX PCPN  45  43  93 NE21G31   29.89F
$$

IAZ047>049-059>061-072>074-084-291800-
   CENTRAL IOWA

CITY           SKY/WX    TMP DP  RH WIND       PRES   REMARKS
AMES           RAIN      42  42 100 NE14G21   30.07F FOG
ANKENY *       LGT RAIN  43  41  93 NE12G18   30.04F
BOONE *        LGT RAIN  41  41 100 NE21      30.05F
CHARITON *     CLOUDY    43  43 100 E16       29.96F
DES MOINES     LGT RAIN  44  41  89 NE18G24   30.01F FOG
GRINNELL*      CLOUDY    43  41  94 E17G23    30.06F FOG
KNOXVILLE *    CLOUDY    45  43  93 E15G23    29.98F
MARSHALLTOWN   LGT RAIN  42  41  96 E17       30.07F FOG
NEWTON *       CLOUDY    43  41  93 E17       30.03F FOG
PELLA *        CLOUDY    44  42  93 E13G23    30.03F
PERRY *        RAIN      42  40  96 NE14G21   30.05F
$$

IAZ004>006-015-016-023>025-035-036-291800-
   NORTH CENTRAL IOWA

CITY           SKY/WX    TMP DP  RH WIND       PRES   REMARKS
ALGONA *       CLOUDY    45  39  81 E17G26    30.13F
CLARION *      CLOUDY    41  41 100 E18G24    30.12F FOG
ESTHERVILLE    CLOUDY    43  40  89 E18       30.15F
FORT DODGE *   CLOUDY    41  36  81 E17       30.11F
MASON CITY     CLOUDY    44  37  76 E16G23    30.18S
FOREST CITY *  CLOUDY    43  37  81 E14       30.16F
WEBSTER CITY * LGT RAIN  41  39  93 E18       30.08F
IOWA FALLS *   RAIN      42  40  93 NE13G18   30.13S
$$

IAZ007>011-017>019-026>030-037>042-050>054-066-291800-
   NORTHEAST IOWA

CITY           SKY/WX    TMP DP  RH WIND       PRES   REMARKS
CEDAR RAPIDS   LGT RAIN  43  43 100 E18G28    30.09F FOG
CHARLES CITY * CLOUDY    45  39  81 E17       30.18F
CLINTON *      LGT RAIN  44  41  89 E16       30.18R
DECORAH *      CLOUDY    45  36  70 E12       30.20S
DUBUQUE        CLOUDY    44  33  65 E15       30.18R
MONTICELLO *   MIX PCPN  43  37  81 E14G20    30.15S
OELWEIN *      PTSUNNY   45  37  76 E16G23    30.15F
WATERLOO       LGT RAIN  44  39  82 E15       30.14S
$$

IAZ064-065-067-068-078-291800-
   EAST CENTRAL IOWA

CITY           SKY/WX    TMP DP  RH WIND       PRES   REMARKS
DAVENPORT      LGT RAIN  43  41  93 E15       30.16R FOG
IOWA CITY      LGT RAIN  44  41  89 E14       30.11F
MUSCATINE *    CLOUDY    45  43  93 E14G25    30.09F FOG
QUAD CITIES    LGT RAIN  44  41  89 E20       30.14F FOG
$$

IAZ062-063-075>077-085>089-095>099-291800-
   SOUTHEAST IOWA

CITY           SKY/WX    TMP DP  RH WIND       PRES   REMARKS
BURLINGTON     CLOUDY    47  47 100 SE17G24   30.08S
FAIRFIELD *    CLOUDY    46  45  93 E22       30.02F
FORT MADISON * CLOUDY    48  46  93 E21       30.06F
KEOKUK *       CLOUDY    48  46  93 E17G26    30.03F
OSKALOOSA *    CLOUDY    44  42  95 E22       30.02F
CENTERVILLE *  CLOUDY    45  45 100 E14G29    29.96F
OTTUMWA        CLOUDY    46  45  96 E17       30.00F
WASHINGTON *   CLOUDY    45  45 100 E21       30.07F FOG
$$

ABBREVIATIONS USED IN REMARKS
   TC - TEMPERATURES IN CELSIUS
  WCI - WIND CHILL INDEX
   HX - HEAT INDEX
  VSB - VISIBILITY
$$




USA.gov is the U.S. government's official web portal to all federal, state and local government web resources and services.